Location: Cuiry
(49.3858°N, 3.7708°E)
Time: 00:05:24
(UTC+00:00)

CARTOSAT-1 - Pass Details

Date: 12 January 2026
Orbit: 594 x 598 km, 97.5° (Epoch: 18 February)

Event Time Altitude Azimuth Distance (km) Brightness Sun altitude
Rises 18:29:37 0° 167° (SSE) 2,832 6.9 -22.0°
Reaches altitude 10° 18:31:47 10° 168° (SSE) 1,934 6.0 -22.3°
Maximum altitude 18:35:59 82° 256° (WSW) 611 3.5 -23.0°
Drops below altitude 10° 18:40:14 10° 345° (NNW) 1,950 6.2 -23.7°
Sets 18:42:25 0° 347° (NNW) 2,857 7.1 -24.0°
